Location: Unspecified
(64.9000°N, 0.0000°E)
Time: 09:17:16
(UTC+00:00)

Altair - Pass Details

Date: 24 June 2019
Orbit: 1501 x 1683 km, 47.2° (Epoch: 24 July)

Event Time Altitude Azimuth Distance (km) Brightness Sun altitude
Rises 00:12:21 0° 263° (W) 4,804 10.0 -1.7°
Reaches altitude 10° 00:16:16 10° 250° (WSW) 3,848 9.4 -1.6°
Maximum altitude 00:23:15 23° 204° (SSW) 3,006 8.5 -1.6°
Drops below altitude 10° 00:30:22 10° 158° (SSE) 3,925 9.1 -1.5°
Sets 00:34:25 0° 145° (SE) 4,925 9.7 -1.5°
